[Iaude] MPEC T193: 2023 TQ7 [a=2.96,e=0.57,i=8.5,H=22.4]
    mpec at marsden.cfa.harvard.edu 
    mpec at marsden.cfa.harvard.edu
       
    Thu Oct 12 10:21:23 EDT 2023
    
    
  
M.P.E.C. 2023-T193                             Issued 2023 October 12, 14:20 UT
     The Minor Planet Electronic Circulars contain information on unusual
         minor planets, routine data on comets and natural satellites,
         and occasional editorial announcements.  They are published
    on behalf of Division F of the International Astronomical Union by the
          Minor Planet Center, Smithsonian Astrophysical Observatory,
                          Cambridge, MA 02138, U.S.A.
			  
             Prepared using the Tamkin Foundation Computer Network
                              MPC at CFA.HARVARD.EDU
            URL https://www.minorplanetcenter.net/    ISSN 1523-6714
                                    2023 TQ7                                    
Observations:
     K23T07Q* C2023 10 06.33007623 52 09.274+23 47 42.24         22.00wXET193F52
     K23T07Q  C2023 10 06.34236323 52 09.076+23 47 39.74         22.29wXET193F52
     K23T07Q  C2023 10 06.36722723 52 08.677+23 47 34.28         22.24wXET193F52
     K23T07Q  C2023 10 09.42089623 51 49.657+23 33 29.55         22.34wXET193F51
     K23T07Q  C2023 10 09.43268323 51 49.520+23 33 25.46         22.60wXET193F51
     K23T07Q  C2023 10 09.44447023 51 49.378+23 33 21.27         22.23wXET193F51
     K23T07Q  C2023 10 09.45629423 51 49.249+23 33 17.25         22.31wXET193F51
     K23T07Q  C2023 10 09.56836123 51 48.222+23 32 37.16         22.26GVET193F52
     K23T07Q  C2023 10 09.56917123 51 48.246+23 32 36.40         21.71GVET193F52
     K23T07Q KC2023 10 12.08689223 51 48.040+23 17 02.20         22.28GVET193V06
     K23T07Q KC2023 10 12.09245523 51 47.980+23 17 00.00         21.75GVET193V06
     K23T07Q KC2023 10 12.10358323 51 47.940+23 16 55.50         22.67GVET193V06
Observer details:
F51 Pan-STARRS 1, Haleakala.  Observers J. Bulger, T. Lowe, P. Minguez, A.
    Schultz, I. Smith.  Measurers K. Chambers, T. de Boer, J. Bulger, J.
    Fairlamb, H. Gao, M. Huber, C.-C. Lin, T. Lowe, E. Magnier, P. Minguez, Y.
    Ramanjooloo, A. Schultz, I. Smith, R. Wainscoat, R. Weryk.  1.8-m Ritchey-
    Chretien + CCD.
F52 Pan-STARRS 2, Haleakala.  Observers J. Bulger, T. Lowe, P. Minguez, A.
    Schultz, I. Smith, K. Chambers, T. Dukes.  Measurers K. Chambers, T. de
    Boer, J. Bulger, J. Fairlamb, H. Gao, M. Huber, C.-C. Lin, T. Lowe, E.
    Magnier, P. Minguez, Y. Ramanjooloo, A. Schultz, I. Smith, R. Wainscoat,
    R. Weryk, S. Chastel.  1.8-m Ritchey-Chretien + CCD.
V06 Catalina Sky Survey-Kuiper.  Observer J. B. Fazekas.  Measurers E. C.
    Beshore, D. Fay, J. B. Fazekas, D. C. Fuls, A. R. Gibbs, A. D. Grauer, H.
    Groeller, J. K. Hogan, R. A. Kowalski, S. M. Larson, G. J. Leonard, D.
    Rankin, R. L. Seaman, F. C. Shelly, K. W. Wierzchos.  1.55-m reflector +
    1K CCD.
Orbital elements:
2023 TQ7                                                 Earth MOID = 0.2888 AU
Epoch 2023 Sept. 13.0 TT = JDT 2460200.5                Bell                    
M 344.45193              (2000.0)            P               Q                  
n   0.19310491     Peri.  170.06205     +0.55451411     -0.82105622             
a   2.9644253      Node   246.14054     +0.75296725     +0.56440128             
e   0.5694151      Incl.    8.52522     +0.35433659     +0.08554460             
P   5.10           H   22.48          G   0.15           U   9                  
Residuals in seconds of arc
231006 F52  0.0   0.0     231009 F51  0.0   0.1-    231009 F52  0.3+  0.1-
231006 F52  0.0   0.0     231009 F51  0.1-  0.3-    231012 V06  0.4+  0.2+
231006 F52  0.1+  0.0     231009 F51  0.0   0.2-    231012 V06  0.2-  0.1+
231009 F51  0.1-  0.0     231009 F52  0.1-  0.4+    231012 V06  0.2-  0.3-
Ephemeris:
2023 TQ7                 a,e,i = 2.96, 0.57, 9                   q = 1.2764
Date    TT    R. A. (2000) Decl.     Delta      r    Elong.  Phase     V
2023 09 12    23 57 09.0 +22 50 47   0.6058  1.5646   151.1    18.1    23.3
...
2023 09 27    23 54 04.6 +23 59 37   0.5031  1.4785   156.9    15.4    22.7
...
2023 10 05    23 52 20.9 +23 52 14   0.4613  1.4369   157.3    15.6    22.4
...
2023 10 11    23 51 46.5 +23 24 15   0.4357  1.4080   156.1    16.7    22.3
2023 10 12    23 51 46.8 +23 17 44   0.4318  1.4034   155.8    17.0    22.3
2023 10 13    23 51 49.2 +23 10 42   0.4282  1.3988   155.4    17.2    22.3
...
2023 10 19    23 52 56.0 +22 18 18   0.4087  1.3730   153.0    19.3    22.2
...
2023 10 27    23 57 19.3 +20 45 27   0.3896  1.3426   148.8    22.5    22.2
...
2023 11 11    00 16 27.7 +17 10 42   0.3731  1.3000   140.5    29.0    22.2
M. P. C. Staff               (C) Copyright 2023 MPC           M.P.E.C. 2023-T193
    
    
More information about the Iaude
mailing list